| time (UTC) | temp F | wind direction | speed MPH | gust MPH | rain 1hr in | rain 24hr in | rain mn in | humidity % | barometer mb |
| 20260510071538 | 48 | 0 | 0.0 | 0.0 | 0.01 | 0.16 | 0.07 | 96 | 1008.4 |
| 20260510071019 | 48 | 0 | 0.0 | 0.0 | 0.01 | 0.16 | 0.07 | 95 | 1008.0 |
| 20260510070518 | 48 | 0 | 0.0 | 0.0 | 0.01 | 0.16 | 0.07 | 95 | 1007.8 |
| 20260510070031 | 48 | 0 | 0.0 | 0.0 | 0.01 | 0.16 | 0.07 | 95 | 1007.8 |
| 20260510065516 | 49 | 0 | 0.0 | 0.0 | 0.01 | 0.16 | 0.07 | 95 | 1007.9 |
| 20260510065022 | 49 | 0 | 0.0 | 0.0 | 0.01 | 0.16 | 0.07 | 95 | 1008.1 |
| 20260510064531 | 49 | 0 | 0.0 | 0.0 | 0.00 | 0.15 | 0.06 | 95 | 1008.1 |
| 20260510064018 | 49 | 0 | 0.0 | 0.0 | 0.00 | 0.15 | 0.06 | 95 | 1008.1 |
| 20260510063515 | 49 | 0 | 0.0 | 0.0 | 0.00 | 0.15 | 0.06 | 95 | 1008.3 |
| 20260510063031 | 50 | 0 | 0.0 | 0.0 | 0.00 | 0.15 | 0.06 | 95 | 1008.3 |
| 20260510062518 | 50 | 0 | 0.0 | 0.0 | 0.00 | 0.15 | 0.06 | 95 | 1008.1 |
| 20260510062015 | 50 | 0 | 0.0 | 0.0 | 0.00 | 0.15 | 0.06 | 95 | 1008.1 |
| 20260510061539 | 50 | 0 | 0.0 | 0.0 | 0.00 | 0.15 | 0.06 | 95 | 1008.2 |
| 20260510061018 | 51 | 0 | 0.0 | 0.0 | 0.00 | 0.15 | 0.06 | 95 | 1008.3 |
| 20260510060521 | 51 | 0 | 0.0 | 0.0 | 0.00 | 0.15 | 0.06 | 95 | 1008.5 |
| 20260510060041 | 51 | 0 | 0.0 | 0.0 | 0.00 | 0.15 | 0.06 | 95 | 1008.4 |
| 20260510055515 | 51 | 0 | 0.0 | 0.0 | 0.00 | 0.15 | 0.06 | 95 | 1008.7 |
| 20260510055016 | 51 | 0 | 0.0 | 0.0 | 0.00 | 0.15 | 0.06 | 95 | 1008.6 |
| 20260510054537 | 51 | 0 | 0.0 | 0.0 | 0.00 | 0.15 | 0.06 | 95 | 1008.5 |
| 20260510054018 | 51 | 0 | 0.0 | 0.0 | 0.01 | 0.15 | 0.06 | 95 | 1008.5 |
| 20260510053516 | 51 | 0 | 0.0 | 0.0 | 0.02 | 0.15 | 0.06 | 95 | 1008.4 |
| 20260510053030 | 51 | 0 | 0.0 | 0.0 | 0.03 | 0.15 | 0.06 | 95 | 1008.4 |
| 20260510052516 | 51 | 0 | 0.0 | 0.0 | 0.04 | 0.15 | 0.06 | 95 | 1008.5 |
| 20260510052014 | 51 | 0 | 0.0 | 0.0 | 0.05 | 0.15 | 0.06 | 94 | 1008.3 |
| 20260510051534 | 51 | 0 | 0.0 | 0.0 | 0.05 | 0.15 | 0.06 | 94 | 1008.2 |
| 20260510051016 | 51 | 0 | 0.0 | 0.0 | 0.06 | 0.15 | 0.06 | 94 | 1008.2 |
| 20260510050515 | 51 | 0 | 0.0 | 0.0 | 0.06 | 0.15 | 0.06 | 94 | 1008.3 |
| 20260510050035 | 52 | 0 | 0.0 | 0.0 | 0.06 | 0.15 | 0.06 | 94 | 1008.2 |
| 20260510045521 | 52 | 0 | 0.0 | 0.0 | 0.06 | 0.15 | 0.06 | 94 | 1008.5 |
| 20260510045017 | 52 | 0 | 0.0 | 0.0 | 0.07 | 0.15 | 0.06 | 94 | 1008.6 |
| 20260510044533 | 52 | 0 | 0.0 | 0.0 | 0.08 | 0.15 | 0.06 | 94 | 1008.8 |
| 20260510044017 | 52 | 0 | 0.0 | 0.0 | 0.07 | 0.14 | 0.05 | 94 | 1009.0 |
| 20260510043518 | 52 | 0 | 0.0 | 0.0 | 0.06 | 0.13 | 0.04 | 94 | 1009.2 |
| 20260510043034 | 52 | 0 | 0.0 | 0.0 | 0.05 | 0.12 | 0.03 | 93 | 1009.1 |
| 20260510042522 | 52 | 0 | 0.0 | 0.0 | 0.04 | 0.11 | 0.02 | 93 | 1009.0 |
| 20260510042017 | 52 | 0 | 0.0 | 0.0 | 0.03 | 0.10 | 0.01 | 92 | 1009.0 |
| 20260510041535 | 53 | 0 | 0.0 | 0.0 | 0.02 | 0.09 | 0.00 | 92 | 1008.8 |
| 20260510041017 | 53 | 0 | 0.0 | 0.0 | 0.02 | 0.09 | 0.00 | 91 | 1008.8 |
| 20260510040517 | 53 | 0 | 0.0 | 0.0 | 0.02 | 0.09 | 0.00 | 90 | 1008.9 |
| 20260510040032 | 54 | 0 | 0.0 | 0.0 | 0.02 | 0.09 | 0.00 | 89 | 1008.8 |
| 20260510035517 | 54 | 0 | 0.0 | 0.0 | 0.02 | 0.09 | 0.09 | 88 | 1008.8 |
| 20260510035017 | 55 | 0 | 0.0 | 0.0 | 0.01 | 0.08 | 0.08 | 87 | 1008.8 |
| 20260510034531 | 55 | 0 | 0.0 | 0.0 | 0.00 | 0.07 | 0.07 | 87 | 1008.9 |
| 20260510034017 | 55 | 0 | 0.0 | 0.0 | 0.00 | 0.07 | 0.07 | 88 | 1008.9 |
| 20260510033520 | 55 | 0 | 0.0 | 0.0 | 0.00 | 0.07 | 0.07 | 89 | 1008.7 |
| 20260510033032 | 54 | 0 | 0.0 | 0.0 | 0.00 | 0.07 | 0.07 | 90 | 1008.7 |
| 20260510032517 | 54 | 0 | 0.0 | 0.0 | 0.00 | 0.07 | 0.07 | 90 | 1008.6 |
| 20260510032017 | 54 | 0 | 0.0 | 0.0 | 0.00 | 0.07 | 0.07 | 90 | 1008.5 |
| 20260510031532 | 54 | 0 | 0.0 | 0.0 | 0.00 | 0.07 | 0.07 | 90 | 1008.1 |
| 20260510031017 | 54 | 0 | 0.0 | 0.0 | 0.00 | 0.07 | 0.07 | 90 | 1007.9 |
| 20260510030522 | 54 | 0 | 0.0 | 0.0 | 0.00 | 0.07 | 0.07 | 90 | 1007.9 |
| 20260510030042 | 54 | 0 | 0.0 | 0.0 | 0.00 | 0.07 | 0.07 | 91 | 1007.6 |
| 20260510025519 | 54 | 0 | 0.0 | 0.0 | 0.00 | 0.07 | 0.07 | 91 | 1007.4 |
| 20260510025017 | 53 | 0 | 0.0 | 0.0 | 0.00 | 0.07 | 0.07 | 91 | 1007.2 |
| 20260510024532 | 53 | 0 | 0.0 | 0.0 | 0.00 | 0.07 | 0.07 | 92 | 1007.2 |
| 20260510024017 | 53 | 0 | 0.0 | 0.0 | 0.00 | 0.07 | 0.07 | 92 | 1007.1 |
| 20260510023517 | 53 | 0 | 0.0 | 0.0 | 0.00 | 0.07 | 0.07 | 92 | 1007.2 |
| 20260510023032 | 53 | 0 | 0.0 | 0.0 | 0.00 | 0.07 | 0.07 | 92 | 1007.4 |
| 20260510022517 | 53 | 0 | 0.0 | 0.0 | 0.00 | 0.07 | 0.07 | 91 | 1007.2 |
| 20260510022017 | 53 | 0 | 0.0 | 0.0 | 0.00 | 0.07 | 0.07 | 91 | 1007.2 |
| 20260510021533 | 53 | 0 | 0.0 | 0.0 | 0.00 | 0.07 | 0.07 | 91 | 1007.1 |
| 20260510021014 | 53 | 0 | 0.0 | 0.0 | 0.00 | 0.07 | 0.07 | 92 | 1007.0 |
| 20260510020517 | 53 | 0 | 0.0 | 0.0 | 0.00 | 0.07 | 0.07 | 92 | 1006.8 |
| 20260510020030 | 52 | 0 | 0.0 | 0.0 | 0.00 | 0.07 | 0.07 | 93 | 1006.8 |
| 20260510015514 | 52 | 0 | 0.0 | 0.0 | 0.00 | 0.07 | 0.07 | 92 | 1006.6 |
| 20260510015016 | 52 | 0 | 0.0 | 0.0 | 0.00 | 0.07 | 0.07 | 92 | 1006.6 |
| 20260510014529 | 52 | 0 | 0.0 | 0.0 | 0.00 | 0.07 | 0.07 | 92 | 1006.9 |
| 20260510014017 | 51 | 0 | 0.0 | 0.0 | 0.00 | 0.07 | 0.07 | 92 | 1007.1 |
| 20260510013517 | 52 | 0 | 0.0 | 0.0 | 0.00 | 0.07 | 0.07 | 92 | 1007.0 |
| 20260510013034 | 52 | 0 | 0.0 | 0.0 | 0.00 | 0.07 | 0.07 | 92 | 1006.9 |
| 20260510012517 | 52 | 0 | 0.0 | 0.0 | 0.00 | 0.07 | 0.07 | 91 | 1006.7 |
| 20260510012017 | 52 | 0 | 0.0 | 0.0 | 0.00 | 0.07 | 0.07 | 92 | 1006.8 |
| 20260510011532 | 52 | 0 | 0.0 | 0.0 | 0.00 | 0.07 | 0.07 | 91 | 1006.8 |
| 20260510011016 | 52 | 0 | 0.0 | 0.0 | 0.00 | 0.07 | 0.07 | 91 | 1006.8 |
| 20260510010518 | 51 | 0 | 0.0 | 0.0 | 0.00 | 0.07 | 0.07 | 91 | 1006.7 |
| 20260510010030 | 52 | 0 | 0.0 | 0.0 | 0.00 | 0.07 | 0.07 | 92 | 1006.7 |
| 20260510005518 | 51 | 0 | 0.0 | 0.0 | 0.00 | 0.07 | 0.07 | 91 | 1006.7 |
| 20260510005019 | 51 | 0 | 0.0 | 0.0 | 0.00 | 0.07 | 0.07 | 91 | 1006.6 |
| 20260510004532 | 51 | 0 | 0.0 | 0.0 | 0.00 | 0.07 | 0.07 | 90 | 1006.6 |
| 20260510004018 | 51 | 0 | 0.0 | 0.0 | 0.00 | 0.07 | 0.07 | 89 | 1006.6 |
| 20260510003517 | 52 | 0 | 0.0 | 0.0 | 0.00 | 0.07 | 0.07 | 89 | 1006.7 |
| 20260510003038 | 52 | 0 | 0.0 | 0.0 | 0.00 | 0.07 | 0.07 | 88 | 1006.4 |
| 20260510002518 | 53 | 0 | 0.0 | 0.0 | 0.00 | 0.07 | 0.07 | 88 | 1006.4 |
| 20260510002017 | 53 | 0 | 0.0 | 0.0 | 0.00 | 0.07 | 0.07 | 87 | 1006.4 |
| 20260510001532 | 54 | 0 | 0.0 | 0.0 | 0.00 | 0.07 | 0.07 | 87 | 1006.4 |
| 20260510001017 | 54 | 0 | 0.0 | 0.0 | 0.00 | 0.07 | 0.07 | 87 | 1006.4 |
| 20260510000514 | 54 | 0 | 0.0 | 0.0 | 0.00 | 0.07 | 0.07 | 86 | 1006.3 |
| 20260510000030 | 54 | 0 | 0.0 | 0.0 | 0.00 | 0.07 | 0.07 | 86 | 1006.3 |
| 20260509235517 | 55 | 0 | 0.0 | 0.0 | 0.00 | 0.07 | 0.07 | 85 | 1006.4 |
| 20260509235017 | 55 | 0 | 0.0 | 0.0 | 0.00 | 0.07 | 0.07 | 85 | 1006.4 |
| 20260509234538 | 56 | 0 | 0.0 | 0.0 | 0.00 | 0.07 | 0.07 | 84 | 1006.2 |
| 20260509234019 | 56 | 0 | 0.0 | 0.0 | 0.00 | 0.07 | 0.07 | 83 | 1005.9 |
| 20260509233517 | 57 | 0 | 0.0 | 0.0 | 0.00 | 0.07 | 0.07 | 82 | 1006.0 |
| 20260509233032 | 57 | 0 | 0.0 | 0.0 | 0.00 | 0.07 | 0.07 | 82 | 1006.1 |
| 20260509232517 | 57 | 0 | 0.0 | 0.0 | 0.00 | 0.07 | 0.07 | 81 | 1006.2 |
| 20260509232019 | 57 | 0 | 0.0 | 0.0 | 0.00 | 0.07 | 0.07 | 82 | 1006.4 |
| 20260509231538 | 57 | 0 | 0.0 | 0.0 | 0.00 | 0.07 | 0.07 | 82 | 1006.3 |
| 20260509231017 | 57 | 0 | 0.0 | 0.0 | 0.00 | 0.07 | 0.07 | 82 | 1006.3 |
| 20260509230517 | 57 | 0 | 0.0 | 0.0 | 0.00 | 0.07 | 0.07 | 82 | 1006.1 |
| 20260509230034 | 57 | 0 | 0.0 | 0.0 | 0.00 | 0.07 | 0.07 | 82 | 1006.2 |
| 20260509225515 | 57 | 0 | 0.0 | 0.0 | 0.00 | 0.07 | 0.07 | 82 | 1006.3 |
| 20260509225014 | 57 | 0 | 0.0 | 0.0 | 0.00 | 0.07 | 0.07 | 82 | 1006.4 |
| 20260509224533 | 57 | 0 | 0.0 | 0.0 | 0.00 | 0.07 | 0.07 | 82 | 1006.4 |
| 20260509224017 | 57 | 0 | 0.0 | 0.0 | 0.00 | 0.07 | 0.07 | 83 | 1006.4 |
| 20260509223517 | 57 | 0 | 0.0 | 0.0 | 0.00 | 0.07 | 0.07 | 82 | 1006.6 |
| 20260509223034 | 57 | 0 | 0.0 | 0.0 | 0.00 | 0.07 | 0.07 | 82 | 1006.4 |
| 20260509222516 | 58 | 0 | 0.0 | 0.0 | 0.00 | 0.07 | 0.07 | 81 | 1006.3 |
| 20260509222018 | 58 | 0 | 0.0 | 0.0 | 0.00 | 0.07 | 0.07 | 80 | 1006.3 |
| 20260509221534 | 58 | 0 | 0.0 | 0.0 | 0.00 | 0.07 | 0.07 | 82 | 1006.2 |
| 20260509221017 | 57 | 0 | 0.0 | 0.0 | 0.00 | 0.07 | 0.07 | 82 | 1006.2 |
| 20260509220516 | 57 | 0 | 0.0 | 0.0 | 0.00 | 0.07 | 0.07 | 81 | 1006.1 |
| 20260509220030 | 57 | 0 | 0.0 | 0.0 | 0.00 | 0.07 | 0.07 | 82 | 1006.2 |
| 20260509215516 | 57 | 0 | 0.0 | 0.0 | 0.00 | 0.07 | 0.07 | 82 | 1006.2 |
| 20260509215017 | 57 | 0 | 0.0 | 0.0 | 0.00 | 0.07 | 0.07 | 82 | 1006.4 |
| 20260509214532 | 57 | 0 | 0.0 | 0.0 | 0.00 | 0.07 | 0.07 | 82 | 1006.7 |
| 20260509214015 | 57 | 0 | 0.0 | 0.0 | 0.00 | 0.07 | 0.07 | 81 | 1006.7 |
| 20260509213517 | 57 | 0 | 0.0 | 0.0 | 0.00 | 0.07 | 0.07 | 82 | 1006.6 |
| 20260509213034 | 57 | 0 | 0.0 | 0.0 | 0.00 | 0.07 | 0.07 | 81 | 1006.6 |
| 20260509212517 | 57 | 0 | 0.0 | 0.0 | 0.00 | 0.07 | 0.07 | 82 | 1006.4 |
| 20260509212020 | 57 | 0 | 0.0 | 0.0 | 0.00 | 0.07 | 0.07 | 82 | 1006.5 |
| 20260509211533 | 57 | 0 | 0.0 | 0.0 | 0.00 | 0.07 | 0.07 | 83 | 1006.5 |
| 20260509211016 | 57 | 0 | 0.0 | 0.0 | 0.00 | 0.07 | 0.07 | 81 | 1006.6 |
| 20260509210513 | 57 | 0 | 0.0 | 0.0 | 0.00 | 0.07 | 0.07 | 81 | 1006.7 |
| 20260509210035 | 57 | 0 | 0.0 | 0.0 | 0.00 | 0.07 | 0.07 | 81 | 1006.6 |
| 20260509205514 | 57 | 0 | 0.0 | 0.0 | 0.00 | 0.07 | 0.07 | 82 | 1006.8 |
| 20260509205014 | 57 | 0 | 0.0 | 0.0 | 0.00 | 0.07 | 0.07 | 80 | 1006.7 |
| 20260509204545 | 57 | 0 | 0.0 | 0.0 | 0.00 | 0.07 | 0.07 | 81 | 1006.7 |
| 20260509204020 | 57 | 0 | 0.0 | 0.0 | 0.00 | 0.07 | 0.07 | 81 | 1006.8 |
| 20260509203517 | 58 | 0 | 0.0 | 0.0 | 0.00 | 0.07 | 0.07 | 80 | 1006.9 |
| 20260509203038 | 58 | 0 | 0.0 | 0.0 | 0.00 | 0.07 | 0.07 | 80 | 1006.9 |
| 20260509202517 | 57 | 0 | 0.0 | 0.0 | 0.00 | 0.07 | 0.07 | 80 | 1007.0 |
| 20260509202015 | 57 | 0 | 0.0 | 0.0 | 0.00 | 0.07 | 0.07 | 81 | 1007.1 |
| 20260509201535 | 57 | 0 | 0.0 | 0.0 | 0.00 | 0.07 | 0.07 | 82 | 1007.0 |
| 20260509201022 | 57 | 0 | 0.0 | 0.0 | 0.00 | 0.07 | 0.07 | 80 | 1007.1 |
| 20260509200518 | 58 | 0 | 0.0 | 0.0 | 0.00 | 0.07 | 0.07 | 80 | 1007.1 |
| 20260509200030 | 58 | 0 | 0.0 | 0.0 | 0.00 | 0.07 | 0.07 | 80 | 1007.0 |
| 20260509195515 | 58 | 0 | 0.0 | 0.0 | 0.00 | 0.07 | 0.07 | 79 | 1006.9 |
| 20260509195014 | 58 | 0 | 0.0 | 0.0 | 0.00 | 0.07 | 0.07 | 82 | 1007.1 |
| 20260509194532 | 58 | 0 | 0.0 | 0.0 | 0.00 | 0.07 | 0.07 | 81 | 1007.1 |
| 20260509194015 | 58 | 0 | 0.0 | 0.0 | 0.00 | 0.07 | 0.07 | 81 | 1007.1 |
| 20260509193517 | 58 | 0 | 0.0 | 0.0 | 0.00 | 0.07 | 0.07 | 80 | 1007.1 |
| 20260509193030 | 59 | 0 | 0.0 | 0.0 | 0.00 | 0.07 | 0.07 | 79 | 1007.2 |
| 20260509192514 | 59 | 0 | 0.0 | 0.0 | 0.00 | 0.07 | 0.07 | 79 | 1007.3 |
| 20260509192015 | 59 | 0 | 0.0 | 0.0 | 0.00 | 0.07 | 0.07 | 80 | 1007.3 |
| 20260509191537 | 58 | 0 | 0.0 | 0.0 | 0.00 | 0.07 | 0.07 | 81 | 1007.3 |
| 20260509191016 | 59 | 0 | 0.0 | 0.0 | 0.00 | 0.07 | 0.07 | 82 | 1007.4 |
| 20260509190517 | 58 | 0 | 0.0 | 0.0 | 0.00 | 0.07 | 0.07 | 80 | 1007.5 |
| 20260509190034 | 59 | 0 | 0.0 | 0.0 | 0.00 | 0.07 | 0.07 | 81 | 1007.6 |
| 20260509185517 | 58 | 0 | 0.0 | 0.0 | 0.00 | 0.07 | 0.07 | 84 | 1007.7 |
| 20260509185017 | 58 | 0 | 0.0 | 0.0 | 0.00 | 0.07 | 0.07 | 85 | 1007.6 |
| 20260509184541 | 57 | 0 | 0.0 | 0.0 | 0.00 | 0.07 | 0.07 | 84 | 1007.7 |
| 20260509184018 | 56 | 0 | 0.0 | 0.0 | 0.00 | 0.07 | 0.07 | 84 | 1007.8 |
| 20260509183517 | 56 | 0 | 0.0 | 0.0 | 0.00 | 0.07 | 0.07 | 85 | 1007.7 |
| 20260509183032 | 56 | 0 | 0.0 | 0.0 | 0.00 | 0.07 | 0.07 | 84 | 1007.7 |
| 20260509182515 | 56 | 0 | 0.0 | 0.0 | 0.00 | 0.07 | 0.07 | 84 | 1007.7 |
| 20260509182013 | 56 | 0 | 0.0 | 0.0 | 0.00 | 0.07 | 0.07 | 85 | 1007.8 |
| 20260509181537 | 56 | 0 | 0.0 | 0.0 | 0.00 | 0.07 | 0.07 | 86 | 1007.8 |
| 20260509181015 | 56 | 0 | 0.0 | 0.0 | 0.00 | 0.07 | 0.07 | 86 | 1007.9 |
| 20260509180515 | 56 | 0 | 0.0 | 0.0 | 0.00 | 0.07 | 0.07 | 85 | 1007.9 |
| 20260509180034 | 56 | 0 | 0.0 | 0.0 | 0.00 | 0.07 | 0.07 | 85 | 1007.8 |
| 20260509175519 | 56 | 0 | 0.0 | 0.0 | 0.00 | 0.07 | 0.07 | 85 | 1007.7 |
| 20260509175017 | 55 | 0 | 0.0 | 0.0 | 0.00 | 0.07 | 0.07 | 85 | 1007.7 |
| 20260509174532 | 56 | 0 | 0.0 | 0.0 | 0.00 | 0.07 | 0.07 | 85 | 1007.8 |
| 20260509174018 | 56 | 0 | 0.0 | 0.0 | 0.00 | 0.07 | 0.07 | 85 | 1007.8 |
| 20260509173517 | 56 | 0 | 0.0 | 0.0 | 0.00 | 0.07 | 0.07 | 84 | 1007.7 |
| 20260509173034 | 56 | 0 | 0.0 | 0.0 | 0.00 | 0.07 | 0.07 | 83 | 1007.7 |
| 20260509172517 | 56 | 0 | 0.0 | 0.0 | 0.00 | 0.07 | 0.07 | 83 | 1007.9 |
| 20260509172017 | 56 | 0 | 0.0 | 0.0 | 0.00 | 0.07 | 0.07 | 84 | 1007.8 |
| 20260509171531 | 56 | 0 | 0.0 | 0.0 | 0.00 | 0.07 | 0.07 | 82 | 1007.8 |
| 20260509171019 | 56 | 0 | 0.0 | 0.0 | 0.00 | 0.07 | 0.07 | 85 | 1007.8 |
| 20260509170515 | 56 | 0 | 0.0 | 0.0 | 0.00 | 0.07 | 0.07 | 85 | 1007.8 |
| 20260509170042 | 55 | 0 | 0.0 | 0.0 | 0.00 | 0.07 | 0.07 | 86 | 1007.9 |
| 20260509165516 | 55 | 0 | 0.0 | 0.0 | 0.00 | 0.07 | 0.07 | 87 | 1007.9 |
| 20260509165018 | 55 | 0 | 0.0 | 0.0 | 0.00 | 0.07 | 0.07 | 88 | 1008.1 |
| 20260509164536 | 55 | 0 | 0.0 | 0.0 | 0.00 | 0.07 | 0.07 | 87 | 1008.1 |
| 20260509164018 | 55 | 0 | 0.0 | 0.0 | 0.00 | 0.07 | 0.07 | 87 | 1008.2 |
| 20260509163517 | 55 | 0 | 0.0 | 0.0 | 0.00 | 0.07 | 0.07 | 87 | 1008.2 |
| 20260509163032 | 54 | 0 | 0.0 | 0.0 | 0.00 | 0.07 | 0.07 | 88 | 1008.3 |
| 20260509162516 | 54 | 0 | 0.0 | 0.0 | 0.00 | 0.07 | 0.07 | 88 | 1008.3 |
| 20260509162025 | 54 | 0 | 0.0 | 0.0 | 0.00 | 0.07 | 0.07 | 89 | 1008.3 |
| 20260509161535 | 54 | 0 | 0.0 | 0.0 | 0.00 | 0.07 | 0.07 | 89 | 1008.4 |
| 20260509161017 | 54 | 0 | 0.0 | 0.0 | 0.00 | 0.07 | 0.07 | 89 | 1008.5 |
| 20260509160514 | 54 | 0 | 0.0 | 0.0 | 0.00 | 0.07 | 0.07 | 89 | 1008.5 |
| 20260509160037 | 54 | 0 | 0.0 | 0.0 | 0.00 | 0.07 | 0.07 | 91 | 1008.5 |
| 20260509155514 | 54 | 0 | 0.0 | 0.0 | 0.00 | 0.07 | 0.07 | 92 | 1008.5 |
| 20260509155018 | 53 | 0 | 0.0 | 0.0 | 0.00 | 0.07 | 0.07 | 91 | 1008.6 |
| 20260509154532 | 53 | 0 | 0.0 | 0.0 | 0.00 | 0.07 | 0.07 | 92 | 1008.7 |
| 20260509154016 | 53 | 0 | 0.0 | 0.0 | 0.00 | 0.07 | 0.07 | 91 | 1008.7 |
| 20260509153519 | 53 | 0 | 0.0 | 0.0 | 0.00 | 0.07 | 0.07 | 93 | 1008.8 |
| 20260509153039 | 53 | 0 | 0.0 | 0.0 | 0.01 | 0.07 | 0.07 | 93 | 1008.9 |
| 20260509152514 | 52 | 0 | 0.0 | 0.0 | 0.01 | 0.07 | 0.07 | 94 | 1009.0 |
| 20260509152014 | 52 | 0 | 0.0 | 0.0 | 0.01 | 0.07 | 0.07 | 94 | 1009.0 |
| 20260509151530 | 52 | 0 | 0.0 | 0.0 | 0.01 | 0.07 | 0.07 | 93 | 1009.1 |
| 20260509151014 | 51 | 0 | 0.0 | 0.0 | 0.01 | 0.07 | 0.07 | 93 | 1009.1 |
| 20260509150517 | 51 | 0 | 0.0 | 0.0 | 0.01 | 0.07 | 0.07 | 93 | 1009.3 |
| 20260509150034 | 51 | 0 | 0.0 | 0.0 | 0.01 | 0.07 | 0.07 | 93 | 1009.3 |
| 20260509145517 | 51 | 0 | 0.0 | 0.0 | 0.02 | 0.14 | 0.07 | 94 | 1009.2 |
| 20260509145017 | 51 | 0 | 0.0 | 0.0 | 0.02 | 0.14 | 0.07 | 94 | 1009.3 |
| 20260509144534 | 51 | 0 | 0.0 | 0.0 | 0.02 | 0.14 | 0.07 | 94 | 1009.4 |
| 20260509144017 | 51 | 0 | 0.0 | 0.0 | 0.02 | 0.14 | 0.07 | 94 | 1009.4 |
| 20260509143517 | 51 | 0 | 0.0 | 0.0 | 0.03 | 0.14 | 0.07 | 94 | 1009.5 |
| 20260509143031 | 51 | 0 | 0.0 | 0.0 | 0.02 | 0.13 | 0.06 | 94 | 1009.6 |
| 20260509142517 | 51 | 0 | 0.0 | 0.0 | 0.02 | 0.13 | 0.06 | 94 | 1009.5 |
| 20260509142016 | 51 | 0 | 0.0 | 0.0 | 0.02 | 0.13 | 0.06 | 94 | 1009.5 |
| 20260509141532 | 50 | 0 | 0.0 | 0.0 | 0.03 | 0.13 | 0.06 | 95 | 1009.4 |
| 20260509141017 | 50 | 0 | 0.0 | 0.0 | 0.03 | 0.13 | 0.06 | 95 | 1009.4 |
| 20260509140516 | 50 | 0 | 0.0 | 0.0 | 0.03 | 0.13 | 0.06 | 95 | 1009.4 |
| 20260509140035 | 49 | 0 | 0.0 | 0.0 | 0.03 | 0.13 | 0.06 | 95 | 1009.4 |
| 20260509135518 | 49 | 0 | 0.0 | 0.0 | 0.02 | 0.12 | 0.05 | 95 | 1009.4 |
| 20260509135014 | 49 | 0 | 0.0 | 0.0 | 0.03 | 0.12 | 0.05 | 94 | 1009.4 |
| 20260509134529 | 49 | 0 | 0.0 | 0.0 | 0.03 | 0.12 | 0.05 | 94 | 1009.5 |
| 20260509134018 | 49 | 0 | 0.0 | 0.0 | 0.03 | 0.12 | 0.05 | 94 | 1009.5 |
| 20260509133517 | 49 | 0 | 0.0 | 0.0 | 0.02 | 0.11 | 0.04 | 94 | 1009.6 |
| 20260509133032 | 48 | 0 | 0.0 | 0.0 | 0.02 | 0.11 | 0.04 | 94 | 1009.8 |
| 20260509132517 | 48 | 0 | 0.0 | 0.0 | 0.02 | 0.11 | 0.04 | 94 | 1009.7 |
| 20260509132019 | 48 | 0 | 0.0 | 0.0 | 0.03 | 0.11 | 0.04 | 93 | 1009.7 |
| 20260509131535 | 48 | 0 | 0.0 | 0.0 | 0.02 | 0.10 | 0.03 | 93 | 1009.7 |
| 20260509131018 | 48 | 0 | 0.0 | 0.0 | 0.02 | 0.10 | 0.03 | 93 | 1009.7 |
| 20260509130514 | 48 | 0 | 0.0 | 0.0 | 0.02 | 0.10 | 0.03 | 93 | 1009.8 |
| 20260509130032 | 48 | 0 | 0.0 | 0.0 | 0.02 | 0.10 | 0.03 | 93 | 1009.8 |
| 20260509125514 | 48 | 0 | 0.0 | 0.0 | 0.03 | 0.10 | 0.03 | 93 | 1009.8 |
| 20260509125018 | 47 | 0 | 0.0 | 0.0 | 0.02 | 0.09 | 0.02 | 93 | 1009.8 |
| 20260509124530 | 47 | 0 | 0.0 | 0.0 | 0.02 | 0.09 | 0.02 | 93 | 1009.8 |
| 20260509124017 | 47 | 0 | 0.0 | 0.0 | 0.02 | 0.09 | 0.02 | 93 | 1009.7 |
| 20260509123514 | 47 | 0 | 0.0 | 0.0 | 0.02 | 0.09 | 0.02 | 92 | 1009.8 |
| 20260509123034 | 47 | 0 | 0.0 | 0.0 | 0.02 | 0.09 | 0.02 | 92 | 1009.8 |
| 20260509122516 | 47 | 0 | 0.0 | 0.0 | 0.02 | 0.09 | 0.02 | 92 | 1009.9 |
| 20260509122017 | 47 | 0 | 0.0 | 0.0 | 0.01 | 0.08 | 0.01 | 91 | 1010.0 |
| 20260509121534 | 47 | 0 | 0.0 | 0.0 | 0.01 | 0.08 | 0.01 | 91 | 1010.0 |
| 20260509121016 | 47 | 0 | 0.0 | 0.0 | 0.01 | 0.08 | 0.01 | 90 | 1010.1 |
| 20260509120514 | 46 | 0 | 0.0 | 0.0 | 0.01 | 0.08 | 0.01 | 90 | 1010.1 |
| 20260509120037 | 46 | 0 | 0.0 | 0.0 | 0.01 | 0.08 | 0.01 | 90 | 1010.2 |
| 20260509115514 | 46 | 0 | 0.0 | 0.0 | 0.00 | 0.07 | 0.00 | 89 | 1010.1 |
| 20260509115015 | 46 | 0 | 0.0 | 0.0 | 0.00 | 0.07 | 0.00 | 88 | 1010.1 |
| 20260509114533 | 46 | 0 | 0.0 | 0.0 | 0.00 | 0.07 | 0.00 | 88 | 1010.0 |
| 20260509114017 | 46 | 0 | 0.0 | 0.0 | 0.00 | 0.07 | 0.00 | 87 | 1010.1 |
| 20260509113514 | 45 | 0 | 0.0 | 0.0 | 0.00 | 0.07 | 0.00 | 87 | 1010.0 |
| 20260509113035 | 45 | 0 | 0.0 | 0.0 | 0.00 | 0.07 | 0.00 | 87 | 1010.0 |
| 20260509112514 | 45 | 0 | 0.0 | 0.0 | 0.00 | 0.07 | 0.00 | 87 | 1010.1 |
| 20260509112019 | 45 | 0 | 0.0 | 0.0 | 0.00 | 0.07 | 0.00 | 86 | 1010.1 |
| 20260509111535 | 45 | 0 | 0.0 | 0.0 | 0.00 | 0.07 | 0.00 | 85 | 1010.1 |
| 20260509111018 | 44 | 0 | 0.0 | 0.0 | 0.00 | 0.07 | 0.00 | 85 | 1010.2 |
| 20260509110518 | 44 | 0 | 0.0 | 0.0 | 0.00 | 0.07 | 0.00 | 86 | 1010.1 |
| 20260509110035 | 44 | 0 | 0.0 | 0.0 | 0.00 | 0.07 | 0.00 | 85 | 1010.0 |
| 20260509105518 | 44 | 0 | 0.0 | 0.0 | 0.00 | 0.07 | 0.00 | 85 | 1009.9 |
| 20260509105020 | 44 | 0 | 0.0 | 0.0 | 0.00 | 0.07 | 0.00 | 84 | 1010.0 |
| 20260509104540 | 43 | 0 | 0.0 | 0.0 | 0.00 | 0.07 | 0.00 | 85 | 1009.9 |
| 20260509104019 | 43 | 0 | 0.0 | 0.0 | 0.00 | 0.07 | 0.00 | 87 | 1010.0 |
| 20260509103518 | 42 | 0 | 0.0 | 0.0 | 0.00 | 0.07 | 0.00 | 86 | 1010.1 |
| 20260509103040 | 42 | 0 | 0.0 | 0.0 | 0.00 | 0.07 | 0.00 | 87 | 1010.1 |
| 20260509102518 | 42 | 0 | 0.0 | 0.0 | 0.00 | 0.07 | 0.00 | 86 | 1010.0 |
| 20260509102019 | 42 | 0 | 0.0 | 0.0 | 0.00 | 0.07 | 0.00 | 86 | 1009.9 |
| 20260509101550 | 41 | 0 | 0.0 | 0.0 | 0.00 | 0.07 | 0.00 | 86 | 1009.8 |
| 20260509101021 | 41 | 0 | 0.0 | 0.0 | 0.00 | 0.07 | 0.00 | 85 | 1009.7 |
| 20260509100520 | 41 | 0 | 0.0 | 0.0 | 0.00 | 0.07 | 0.00 | 85 | 1009.8 |
| 20260509100041 | 41 | 0 | 0.0 | 0.0 | 0.00 | 0.07 | 0.00 | 85 | 1010.0 |
| 20260509095518 | 41 | 0 | 0.0 | 0.0 | 0.00 | 0.07 | 0.00 | 85 | 1009.9 |
| 20260509095018 | 41 | 0 | 0.0 | 0.0 | 0.00 | 0.07 | 0.00 | 85 | 1009.8 |
| 20260509094534 | 41 | 0 | 0.0 | 0.0 | 0.00 | 0.07 | 0.00 | 85 | 1009.8 |
| 20260509094018 | 41 | 0 | 0.0 | 0.0 | 0.00 | 0.07 | 0.00 | 85 | 1009.7 |
| 20260509093519 | 41 | 0 | 0.0 | 0.0 | 0.00 | 0.07 | 0.00 | 85 | 1009.6 |
| 20260509093035 | 41 | 0 | 0.0 | 0.0 | 0.00 | 0.07 | 0.00 | 85 | 1009.7 |
| 20260509092519 | 41 | 0 | 0.0 | 0.0 | 0.00 | 0.07 | 0.00 | 85 | 1010.0 |
| 20260509092018 | 41 | 0 | 0.0 | 0.0 | 0.00 | 0.07 | 0.00 | 84 | 1009.9 |
| 20260509091534 | 41 | 0 | 0.0 | 0.0 | 0.00 | 0.07 | 0.00 | 84 | 1009.8 |
| 20260509091018 | 41 | 0 | 0.0 | 0.0 | 0.00 | 0.07 | 0.00 | 84 | 1010.0 |
| 20260509090519 | 41 | 0 | 0.0 | 0.0 | 0.00 | 0.07 | 0.00 | 84 | 1010.3 |
| 20260509090043 | 41 | 0 | 0.0 | 0.0 | 0.00 | 0.07 | 0.00 | 84 | 1010.4 |
| 20260509085518 | 41 | 0 | 0.0 | 0.0 | 0.00 | 0.09 | 0.00 | 83 | 1010.4 |
| 20260509085018 | 41 | 0 | 0.0 | 0.0 | 0.00 | 0.09 | 0.00 | 83 | 1010.4 |
| 20260509084543 | 41 | 0 | 0.0 | 0.0 | 0.00 | 0.09 | 0.00 | 83 | 1010.4 |
| 20260509084021 | 41 | 0 | 0.0 | 0.0 | 0.00 | 0.09 | 0.00 | 84 | 1010.3 |
| 20260509083519 | 41 | 0 | 0.0 | 0.0 | 0.00 | 0.09 | 0.00 | 84 | 1010.4 |
| 20260509083039 | 41 | 0 | 0.0 | 0.0 | 0.00 | 0.09 | 0.00 | 84 | 1010.6 |
| 20260509082519 | 41 | 0 | 0.0 | 0.0 | 0.00 | 0.09 | 0.00 | 85 | 1010.5 |
| 20260509082022 | 41 | 0 | 0.0 | 0.0 | 0.00 | 0.09 | 0.00 | 85 | 1010.4 |
| 20260509081646 | 41 | 0 | 0.0 | 0.0 | 0.00 | 0.09 | 0.00 | 85 | 1010.6 |
| 20260509081016 | 41 | 0 | 0.0 | 0.0 | 0.00 | 0.09 | 0.00 | 84 | 1010.6 |
| 20260509080514 | 41 | 0 | 0.0 | 0.0 | 0.00 | 0.09 | 0.00 | 85 | 1010.6 |
| 20260509080035 | 41 | 0 | 0.0 | 0.0 | 0.00 | 0.09 | 0.00 | 85 | 1010.8 |
| 20260509075517 | 41 | 0 | 0.0 | 0.0 | 0.00 | 0.15 | 0.00 | 85 | 1010.7 |
| 20260509075017 | 40 | 0 | 0.0 | 0.0 | 0.00 | 0.15 | 0.00 | 85 | 1010.6 |
| 20260509074532 | 40 | 0 | 0.0 | 0.0 | 0.00 | 0.15 | 0.00 | 85 | 1010.8 |
| 20260509074017 | 40 | 0 | 0.0 | 0.0 | 0.00 | 0.15 | 0.00 | 86 | 1010.8 |
| 20260509073521 | 40 | 0 | 0.0 | 0.0 | 0.00 | 0.15 | 0.00 | 86 | 1010.8 |
| 20260509073104 | 40 | 0 | 0.0 | 0.0 | 0.00 | 0.15 | 0.00 | 86 | 1010.5 |
| 20260509072521 | 39 | 0 | 0.0 | 0.0 | 0.00 | 0.15 | 0.00 | 86 | 1010.7 |
| 20260509072021 | 39 | 0 | 0.0 | 0.0 | 0.00 | 0.15 | 0.00 | 86 | 1010.6 |